�N����,����,�~����,�C��,���x,�C��,����,���ϕ���,�ő�u�ԕ���,�ő厞����,���˗�,�I�_���x,�n�����x,�ő啗���N��,DTYPE
"23/04/22","00:10",0.0,12.0,64.8,1006.7,312.7,2.8,5.1,313.7,0.00,5.6,16.2,"00:01:46",1
"23/04/22","00:20",0.0,12.0,64.7,1006.9,319.0,3.6,4.7,336.0,0.00,5.6,16.0,"00:13:08",1
"23/04/22","00:30",0.0,12.0,65.0,1006.9,319.6,3.1,4.3,308.3,0.00,5.7,16.1,"00:24:12",1
"23/04/22","00:40",0.0,11.9,64.5,1006.9,315.5,3.1,4.7,323.8,0.00,5.5,16.3,"00:36:28",1
"23/04/22","00:50",0.0,11.8,64.7,1006.9,314.7,3.1,4.2,323.4,0.00,5.4,16.0,"00:45:34",1
"23/04/22","01:00",0.0,11.7,64.1,1007.1,322.2,3.6,5.7,322.2,0.00,5.2,16.1,"00:58:34",1
"23/04/22","01:10",0.0,11.6,64.6,1007.4,320.7,3.1,5.1,340.8,0.00,5.2,15.9,"01:01:26",1
"23/04/22","01:20",0.0,11.5,63.7,1007.1,296.9,2.3,4.7,323.7,0.00,4.9,15.7,"01:18:04",1
"23/04/22","01:30",0.0,11.3,63.0,1007.4,328.5,1.7,2.9,327.8,0.00,4.6,15.8,"01:22:14",1
"23/04/22","01:40",0.0,11.1,64.2,1007.6,316.1,2.5,3.3,314.4,0.00,4.6,15.8,"01:31:44",1
"23/04/22","01:50",0.0,11.1,62.5,1007.1,323.0,2.3,4.7,344.5,0.00,4.3,15.6,"01:43:18",1
"23/04/22","02:00",0.0,11.0,63.3,1007.1,321.2,2.3,3.9,323.6,0.00,4.3,15.7,"01:51:52",1
"23/04/22","02:10",0.0,10.3,66.2,1007.4,314.6,1.7,2.7,341.6,0.00,4.3,15.7,"02:08:24",1
"23/04/22","02:20",0.0,9.8,69.2,1007.4,325.3,2.1,3.2,342.5,0.00,4.5,15.7,"02:13:44",1
"23/04/22","02:30",0.0,9.7,68.0,1007.6,315.0,1.8,2.8,316.7,0.00,4.1,15.5,"02:27:04",1
"23/04/22","02:40",0.0,9.4,69.1,1007.6,325.8,2.1,3.4,331.2,0.00,4.1,15.4,"02:36:16",1
"23/04/22","02:50",0.0,9.9,63.9,1007.1,304.1,2.5,3.5,318.2,0.00,3.4,15.4,"02:40:40",1
"23/04/22","03:00",0.0,9.8,65.2,1007.8,328.7,2.2,3.1,323.1,0.00,3.6,15.6,"02:56:48",1
"23/04/22","03:10",0.0,10.1,60.5,1007.8,310.8,2.6,4.3,309.9,0.00,2.9,15.3,"03:02:00",1
"23/04/22","03:20",0.0,10.1,61.1,1008.1,310.2,2.3,4.1,314.4,0.00,3.0,15.2,"03:14:56",1
"23/04/22","03:30",0.0,9.8,63.3,1008.1,331.2,1.5,2.9,319.0,0.00,3.2,15.4,"03:22:40",1
"23/04/22","03:40",0.0,9.2,65.8,1008.1,321.7,2.3,4.0,325.3,0.00,3.2,15.4,"03:38:56",1
"23/04/22","03:50",0.0,9.8,62.7,1008.6,301.6,2.3,4.1,341.7,0.00,3.1,15.2,"03:45:44",1
"23/04/22","04:00",0.0,9.6,64.0,1008.6,316.8,1.8,2.7,331.7,0.00,3.2,15.2,"03:53:52",1
"23/04/22","04:10",0.0,9.3,65.9,1008.3,324.1,1.7,2.7,326.1,0.00,3.3,15.2,"04:06:48",1
"23/04/22","04:20",0.0,8.9,66.6,1008.6,311.3,2.3,3.6,305.8,0.00,3.1,15.1,"04:19:28",1
"23/04/22","04:30",0.0,9.2,64.8,1008.3,317.0,2.2,3.3,312.3,0.00,3.0,15.2,"04:24:56",1
"23/04/22","04:40",0.0,9.3,64.7,1008.6,312.3,2.3,3.4,319.6,0.00,3.0,14.9,"04:37:36",1
"23/04/22","04:50",0.0,9.1,66.3,1008.8,321.7,2.3,3.3,340.2,0.00,3.2,15.2,"04:49:28",1
"23/04/22","05:00",0.0,8.6,68.9,1008.6,327.7,2.1,2.9,314.8,0.00,3.3,14.9,"04:52:24",1
"23/04/22","05:10",0.0,8.3,69.2,1008.3,308.2,2.7,5.6,325.9,0.00,3.0,14.7,"05:09:36",1
"23/04/22","05:20",0.0,9.1,65.0,1008.8,325.9,2.3,4.2,344.0,0.00,2.9,14.8,"05:10:56",1
"23/04/22","05:30",0.0,9.2,64.7,1009.3,316.8,2.1,3.1,320.4,0.00,2.9,14.7,"05:29:44",1
"23/04/22","05:40",0.0,8.9,65.9,1008.8,319.3,1.7,3.6,337.7,0.00,2.9,14.7,"05:30:16",1
"23/04/22","05:50",0.0,8.8,65.0,1009.5,315.4,2.3,4.0,307.7,0.00,2.6,14.7,"05:46:08",1
"23/04/22","06:00",0.0,9.8,60.1,1009.5,337.8,3.0,7.1,349.4,0.00,2.5,14.6,"05:57:12",1
"23/04/22","06:10",0.0,9.9,59.5,1009.5,326.6,2.2,3.7,339.3,0.00,2.4,14.6,"06:06:02",1
"23/04/22","06:20",0.0,10.2,58.2,1009.5,313.2,2.6,5.0,316.4,0.00,2.4,14.6,"06:10:08",1
"23/04/22","06:30",0.0,10.2,58.6,1009.7,333.2,2.1,3.9,338.4,0.00,2.5,14.3,"06:21:20",1
"23/04/22","06:40",0.0,10.3,59.8,1010.0,303.2,2.2,4.7,346.3,0.00,2.9,14.5,"06:37:12",1
"23/04/22","06:50",0.0,10.1,61.2,1009.7,306.9,2.2,3.7,320.0,0.01,3.0,14.3,"06:48:56",1
"23/04/22","07:00",0.0,10.6,61.7,1009.7,323.0,1.7,2.7,330.8,0.02,3.6,14.4,"06:50:42",1
"23/04/22","07:10",0.0,10.8,63.2,1009.7,302.6,1.5,2.2,308.3,0.03,4.1,14.4,"07:05:26",1
"23/04/22","07:20",0.0,10.8,61.8,1010.0,287.0,1.3,2.7,316.3,0.05,3.8,14.5,"07:11:52",1
"23/04/22","07:30",0.0,11.5,57.3,1010.4,316.6,1.3,2.8,330.1,0.06,3.4,14.3,"07:27:44",1
"23/04/22","07:40",0.0,12.1,54.8,1010.2,333.9,1.6,3.5,333.6,0.08,3.3,14.3,"07:39:36",1
"23/04/22","07:50",0.0,12.5,53.1,1010.7,329.9,1.6,4.1,341.9,0.10,3.3,14.4,"07:49:24",1
"23/04/22","08:00",0.0,12.7,51.5,1010.7,350.4,1.7,3.5,339.7,0.12,3.0,14.6,"07:54:08",1
"23/04/22","08:10",0.0,13.0,48.1,1010.9,353.0,2.1,4.9,327.9,0.15,2.3,14.5,"08:06:46",1
"23/04/22","08:20",0.0,13.3,48.8,1011.2,356.7,2.5,7.3,342.5,0.17,2.8,14.2,"08:11:34",1
"23/04/22","08:30",0.0,13.3,45.4,1011.4,347.4,3.1,6.5,348.5,0.20,1.8,14.3,"08:27:50",1
"23/04/22","08:40",0.0,13.7,44.4,1011.4,350.6,2.8,7.0,332.6,0.22,1.8,14.4,"08:33:54",1
"23/04/22","08:50",0.0,13.8,44.6,1011.6,332.7,2.8,6.7,324.0,0.25,2.0,14.2,"08:49:44",1
"23/04/22","09:00",0.0,14.1,42.9,1011.6,352.7,2.6,7.4,327.3,0.28,1.7,14.4,"08:59:52",1
"23/04/22","09:10",0.0,14.1,42.0,1011.9,355.8,3.5,6.5,356.2,0.30,1.4,14.3,"09:09:34",1
"23/04/22","09:20",0.0,14.1,40.4,1011.4,1.7,3.5,7.5,355.8,0.33,0.9,14.4,"09:12:24",1
"23/04/22","09:30",0.0,14.3,40.2,1011.6,1.2,3.2,8.0,350.9,0.35,1.0,14.5,"09:20:02",1
"23/04/22","09:40",0.0,14.4,38.3,1011.4,1.6,3.4,7.3,1.6,0.38,0.4,14.5,"09:33:52",1
"23/04/22","09:50",0.0,15.2,39.3,1011.4,2.5,2.6,6.5,4.5,0.40,1.5,14.5,"09:49:36",1
"23/04/22","10:00",0.0,15.5,36.8,1011.9,23.4,2.1,4.5,93.4,0.42,0.8,14.5,"09:54:24",1
"23/04/22","10:10",0.0,15.3,36.2,1011.9,9.5,3.1,9.0,338.5,0.45,0.4,14.5,"10:01:36",1
"23/04/22","10:20",0.0,15.8,35.8,1011.4,8.2,2.2,4.8,350.2,0.47,0.7,14.5,"10:12:24",1
"23/04/22","10:30",0.0,16.1,36.8,1011.4,359.2,2.2,4.4,354.1,0.48,1.4,14.6,"10:28:00",1
"23/04/22","10:40",0.0,15.8,37.9,1011.6,356.5,3.5,6.8,12.1,0.50,1.5,14.5,"10:36:08",1
"23/04/22","10:50",0.0,15.7,36.9,1011.4,359.6,3.5,8.3,338.8,0.52,1.1,14.7,"10:45:20",1
"23/04/22","11:00",0.0,15.8,35.6,1011.4,358.0,4.0,8.7,340.5,0.53,0.7,14.8,"10:55:04",1
"23/04/22","11:10",0.0,15.8,34.4,1011.6,10.5,3.6,7.1,33.0,0.55,0.2,14.8,"11:06:00",1
"23/04/22","11:20",0.0,16.2,33.1,1011.9,358.3,3.5,7.1,47.8,0.56,0.0,14.9,"11:16:32",1
"23/04/22","11:30",0.0,16.2,33.4,1011.9,18.1,3.6,8.6,15.0,0.57,0.1,15.0,"11:21:20",1
"23/04/22","11:40",0.0,16.5,32.7,1011.9,0.8,3.9,6.6,332.8,0.58,0.1,14.9,"11:37:52",1
"23/04/22","11:50",0.0,16.4,32.7,1011.6,5.4,3.5,7.9,359.7,0.59,0.0,15.1,"11:46:24",1
"23/04/22","12:00",0.0,16.6,32.5,1011.9,353.9,3.2,6.5,350.1,0.59,0.1,15.0,"11:57:20",1
"23/04/22","12:10",0.0,16.6,28.7,1011.6,12.2,3.1,7.1,24.3,0.60,-1.6,15.1,"12:09:12",1
"23/04/22","12:20",0.0,16.9,30.9,1011.4,8.5,3.6,8.8,346.6,0.60,-0.3,15.2,"12:19:28",1
"23/04/22","12:30",0.0,16.6,29.2,1011.4,10.7,3.7,8.1,351.2,0.61,-1.4,15.5,"12:26:24",1
"23/04/22","12:40",0.0,16.9,28.1,1011.4,12.7,3.0,7.1,345.6,0.60,-1.6,15.2,"12:31:20",1
"23/04/22","12:50",0.0,17.2,31.5,1011.4,14.3,3.0,5.9,44.0,0.60,0.2,15.2,"12:42:40",1
"23/04/22","13:00",0.0,17.3,31.2,1010.7,359.0,3.4,9.7,327.5,0.60,0.2,15.7,"12:59:52",1
"23/04/22","13:10",0.0,17.2,28.1,1011.4,6.0,3.9,8.6,348.5,0.60,-1.4,15.6,"13:08:16",1
"23/04/22","13:20",0.0,17.2,30.4,1011.4,10.9,3.4,8.3,10.1,0.59,-0.3,15.7,"13:11:12",1
"23/04/22","13:30",0.0,17.5,26.9,1011.2,354.2,3.4,6.4,334.2,0.58,-1.7,15.8,"13:24:08",1
"23/04/22","13:40",0.0,17.7,32.0,1011.4,357.5,3.0,6.6,15.9,0.58,0.9,15.9,"13:32:48",1
"23/04/22","13:50",0.0,17.3,33.9,1010.9,342.9,4.1,8.1,343.8,0.57,1.3,15.7,"13:41:12",1
"23/04/22","14:00",0.0,16.7,36.5,1011.4,333.9,5.7,10.3,321.0,0.56,1.8,16.2,"13:55:20",1
"23/04/22","14:10",0.0,16.6,34.1,1011.2,332.8,5.9,11.2,341.5,0.55,0.8,16.1,"14:03:44",1
"23/04/22","14:20",0.0,16.7,33.7,1011.4,340.8,5.6,10.5,341.7,0.54,0.7,16.1,"14:18:16",1
"23/04/22","14:30",0.0,17.0,34.4,1011.6,331.1,5.2,9.7,332.8,0.52,1.2,16.2,"14:20:08",1
"23/04/22","14:40",0.0,16.7,32.9,1011.2,337.5,5.1,8.9,316.6,0.51,0.4,16.4,"14:33:12",1
"23/04/22","14:50",0.0,16.6,33.0,1011.2,336.2,5.6,10.9,313.5,0.49,0.3,16.4,"14:45:20",1
"23/04/22","15:00",0.0,16.5,32.4,1011.2,332.0,6.8,11.4,333.8,0.48,0.0,16.4,"14:54:10",1
"23/04/22","15:10",0.0,16.8,33.8,1010.9,341.2,5.1,10.3,336.4,0.46,0.8,16.3,"15:04:16",1
"23/04/22","15:20",0.0,17.0,34.2,1011.2,346.0,3.6,7.7,344.2,0.44,1.2,16.4,"15:19:12",1
"23/04/22","15:30",0.0,16.3,35.2,1011.4,336.7,6.0,11.7,325.1,0.42,0.9,16.4,"15:25:20",1
"23/04/22","15:40",0.0,16.3,36.7,1010.9,338.3,5.2,10.8,313.3,0.40,1.5,16.5,"15:35:36",1
"23/04/22","15:50",0.0,16.3,35.3,1010.9,339.8,5.2,9.8,333.8,0.38,1.0,16.4,"15:45:04",1
"23/04/22","16:00",0.0,15.9,34.0,1011.2,338.6,6.2,12.4,324.5,0.36,0.1,16.4,"15:51:44",1
"23/04/22","16:10",0.0,15.7,33.6,1011.4,332.1,6.1,10.3,318.4,0.33,-0.2,16.6,"16:00:08",1
"23/04/22","16:20",0.0,15.7,34.5,1011.4,342.0,5.7,10.2,348.2,0.31,0.1,16.5,"16:11:28",1
"23/04/22","16:30",0.0,15.4,33.6,1011.9,341.2,6.5,9.7,347.7,0.28,-0.5,16.5,"16:27:54",1
"23/04/22","16:40",0.0,15.2,34.7,1011.4,333.3,6.1,10.6,314.7,0.26,-0.2,16.4,"16:34:48",1
"23/04/22","16:50",0.0,15.4,35.6,1011.6,332.1,4.6,9.5,343.1,0.23,0.3,16.5,"16:47:18",1
"23/04/22","17:00",0.0,15.1,35.2,1011.9,329.6,5.0,8.8,319.9,0.21,-0.1,16.6,"16:54:12",1
"23/04/22","17:10",0.0,15.0,33.9,1011.9,333.9,4.2,8.9,341.2,0.18,-0.7,16.5,"17:05:12",1
"23/04/22","17:20",0.0,14.7,34.0,1011.6,333.4,5.5,8.9,344.2,0.16,-0.9,16.5,"17:12:50",1
"23/04/22","17:30",0.0,14.7,35.4,1012.1,332.4,5.6,10.8,327.8,0.14,-0.4,16.5,"17:25:24",1
"23/04/22","17:40",0.0,14.7,33.5,1012.6,346.8,3.4,8.2,342.8,0.11,-1.1,16.4,"17:31:58",1
"23/04/22","17:50",0.0,14.7,36.9,1012.3,327.6,3.6,6.0,348.7,0.09,0.2,16.4,"17:49:52",1
"23/04/22","18:00",0.0,14.3,38.5,1011.9,326.3,3.6,6.8,318.0,0.07,0.4,16.3,"17:51:00",1
"23/04/22","18:10",0.0,13.6,40.6,1012.1,334.6,5.2,12.3,336.9,0.05,0.5,16.3,"18:07:50",1
"23/04/22","18:20",0.0,13.6,42.0,1012.3,338.2,4.1,8.7,13.1,0.03,1.0,16.4,"18:11:20",1
"23/04/22","18:30",0.0,13.2,43.3,1012.3,324.0,3.2,5.6,324.5,0.02,1.0,16.3,"18:27:44",1
"23/04/22","18:40",0.0,12.7,45.2,1012.6,321.7,4.2,10.6,306.7,0.01,1.2,16.2,"18:30:42",1
"23/04/22","18:50",0.0,12.4,47.1,1012.6,331.9,4.6,7.2,320.7,0.00,1.5,16.1,"18:46:50",1
"23/04/22","19:00",0.0,12.2,48.3,1013.0,315.5,3.5,7.9,307.0,0.00,1.6,16.1,"18:59:32",1
"23/04/22","19:10",0.0,12.0,48.9,1013.0,322.8,5.2,9.3,335.4,0.00,1.6,16.1,"19:01:52",1
"23/04/22","19:20",0.0,11.7,50.1,1013.3,332.6,4.6,8.2,309.7,0.00,1.7,16.0,"19:14:36",1
"23/04/22","19:30",0.0,11.4,51.4,1013.0,330.1,3.4,5.7,330.8,0.00,1.8,16.0,"19:21:26",1
"23/04/22","19:40",0.0,11.2,52.4,1012.8,334.2,3.6,5.7,344.7,0.00,1.9,15.8,"19:32:14",1
"23/04/22","19:50",0.0,10.9,53.3,1012.8,332.0,2.2,3.3,345.2,0.00,1.8,15.7,"19:44:52",1
"23/04/22","20:00",0.0,10.8,54.6,1013.3,328.0,3.0,5.0,303.4,0.00,2.1,15.8,"19:58:42",1
"23/04/22","20:10",0.0,10.7,55.3,1013.5,321.4,2.3,4.2,339.2,0.00,2.2,15.7,"20:02:24",1
"23/04/22","20:20",0.0,10.7,56.3,1013.5,330.5,3.0,5.7,325.1,0.00,2.4,15.5,"20:14:46",1
"23/04/22","20:30",0.0,10.5,57.3,1014.0,326.4,2.6,3.9,329.7,0.00,2.5,15.4,"20:22:24",1
"23/04/22","20:40",0.0,10.6,57.5,1014.0,338.0,3.1,5.8,339.3,0.00,2.6,15.5,"20:39:34",1
"23/04/22","20:50",0.0,10.6,57.9,1014.2,325.9,3.0,4.5,337.6,0.00,2.7,15.3,"20:43:28",1
"23/04/22","21:00",0.0,10.3,58.4,1014.2,289.1,2.0,3.5,318.6,0.00,2.5,15.1,"20:51:36",1
"23/04/22","21:10",0.0,10.0,60.3,1014.5,287.4,0.8,2.7,308.1,0.00,2.7,15.2,"21:09:06",1
"23/04/22","21:20",0.0,9.7,61.3,1014.7,315.3,2.1,3.4,304.0,0.00,2.7,15.2,"21:11:04",1
"23/04/22","21:30",0.0,9.8,62.3,1014.5,325.7,2.3,3.3,331.8,0.00,3.0,15.2,"21:20:24",1
"23/04/22","21:40",0.0,9.2,64.8,1014.5,326.3,2.0,3.3,310.1,0.00,3.0,15.2,"21:39:52",1
"23/04/22","21:50",0.0,9.5,63.0,1014.7,334.6,2.2,5.2,325.6,0.00,2.9,15.2,"21:41:04",1
"23/04/22","22:00",0.0,9.6,62.3,1014.7,258.1,1.2,2.2,263.8,0.00,2.8,15.1,"21:59:22",1
"23/04/22","22:10",0.0,9.8,62.2,1014.7,328.2,1.7,2.9,320.0,0.00,3.0,14.8,"22:06:16",1
"23/04/22","22:20",0.0,9.3,63.9,1014.9,316.7,2.2,4.1,323.9,0.00,2.9,14.8,"22:18:32",1
"23/04/22","22:30",0.0,9.1,64.7,1014.5,297.8,1.1,2.7,299.9,0.00,2.8,15.1,"22:28:08",1
"23/04/22","22:40",0.0,9.0,65.0,1014.9,288.7,1.7,2.7,333.2,0.00,2.8,14.9,"22:39:36",1
"23/04/22","22:50",0.0,9.0,66.7,1014.9,313.5,1.6,2.9,334.7,0.00,3.2,14.6,"22:40:16",1
"23/04/22","23:00",0.0,8.4,68.3,1014.7,303.7,1.8,3.1,302.3,0.00,2.9,14.7,"22:55:44",1
"23/04/22","23:10",0.0,8.3,70.0,1014.9,320.7,2.3,4.3,347.6,0.00,3.2,14.7,"23:04:40",1
"23/04/22","23:20",0.0,8.1,71.1,1014.9,307.2,1.5,2.9,308.6,0.00,3.2,14.6,"23:15:36",1
"23/04/22","23:30",0.0,8.0,72.3,1014.5,300.2,1.6,2.7,303.3,0.00,3.4,14.6,"23:28:40",1
"23/04/22","23:40",0.0,8.0,73.5,1014.7,317.4,2.0,3.1,334.0,0.00,3.6,14.6,"23:37:04",1
"23/04/22","23:50",0.0,7.9,74.3,1014.7,306.7,1.6,2.7,317.5,0.00,3.7,14.5,"23:48:32",1
"23/04/22","24:00",0.0,7.9,74.6,1014.9,298.3,1.6,2.4,324.7,0.00,3.7,14.3,"23:52:32",1
